Location: Haliburton Scout Reserve
(45.0900°N, 78.3200°W)
Time: 08:21:45
(UTC-04:00)

S-56A Canister/Altair - Pass Details

Date: 01 February 2023
Orbit: 639 x 2493 km, 38.9° (Epoch: 27 March)

Event Time Altitude Azimuth Distance (km) Brightness Sun altitude
Rises 17:49:40 0° 272° (W) 4,021 12.8 -5.6°
Reaches altitude 10° 17:52:52 10° 257° (WSW) 3,330 12.6 -6.1°
Maximum altitude 17:59:02 22° 210° (SSW) 2,992 11.2 -7.2°
Drops below altitude 10° 18:06:59 10° 167° (SSE) 4,406 11.4 -8.5°
Sets 18:12:07 0° 154° (SSE) 5,703 11.9 -9.4°
